Weather History for CYVQ - October, 2012

Change the Weather History Date:

Friday, October 19, 2012

  Actual Average Record
Temperature  
Mean Temperature 22 °F -  
Max Temperature 24 °F 13 °F 50 °F (2013)
Min Temperature 21 °F -0 °F 3 °F (1997)
Degree Days  
Heating Degree Days 42    
Moisture  
Dew Point 21 °F    
Average Humidity 88    
Maximum Humidity 93    
Minimum Humidity 77    
Precipitation  
Precipitation 0.08 in 0.03 in - ()
Sea Level Pressure  
Sea Level Pressure 30.04 in    
Wind  
Wind Speed 13 mph ()    
Max Wind Speed 21 mph    
Max Gust Speed 31 mph    
Visibility 6.7 miles    
Events Snow    
Averages and records for this station are not official NWS values.
T = Trace of Precipitation, MM = Missing Value Source: Averaged Metar Reports

Daily Weather History Graph

Daily Weather History Graph

Search for Another Location

Airport or City:

Trip Planner

Search our weather history database for the weather conditions in past years. The results will help you decide how hot, cold, wet, or windy it might be!

Date:

Astronomy

Oct. 19, 2012 Rise Set
Actual Time 9:36 AM MDT 6:46 PM MDT
Civil Twilight 8:44 AM MDT 7:38 PM MDT
Nautical Twilight 7:46 AM MDT 8:36 PM MDT
Astronomical Twilight 6:48 AM MDT 9:34 PM MDT
Moon 4:05 PM MDT (10/19) 8:53 PM MDT (10/19)
Length of Visible Light 10h 54m
Length of Day
9h 10m
Waxing Crescent, 24% of the Moon is Illuminated
Oct 19
Waxing Crescent
Oct 21
First Quarter
Oct 29
Full
Nov 6
Last Quarter
Nov 13
New

Hourly Weather History & Observations

Time (MDT) Temp. Windchill Dew Point Humidity Pressure Visibility Wind Dir Wind Speed Gust Speed Precip Events Conditions
12:00 AM 28 °F - 26 °F 89% 29.88 in 4 mi WNW 11.5 mph - - Snow Light Snow
12:00 AM 28.4 °F 18.0 °F 26.6 °F 93% 29.88 in 4.0 mi WNW 12.7 mph - N/A Snow Light Snow
1:00 AM 28.4 °F 19.7 °F 26.6 °F 93% 29.88 in 5.0 mi WNW 9.2 mph - N/A Snow Light Snow
2:00 AM 28.4 °F 19.7 °F 26.6 °F 93% 29.89 in 4.0 mi WNW 9.2 mph - N/A Snow Light Snow
3:00 AM 28.4 °F 19.7 °F 26.6 °F 93% 29.90 in 5.0 mi WNW 9.2 mph - N/A Snow Light Snow
4:00 AM 28.4 °F 18.0 °F 26.6 °F 93% 29.91 in 6.0 mi West 12.7 mph - N/A Snow Light Snow
5:00 AM 26.6 °F 13.4 °F 24.8 °F 93% 29.94 in 4.0 mi West 18.4 mph - N/A Snow Light Snow
6:00 AM 25 °F - 22 °F 85% 29.97 in 4 mi WNW 18.4 mph - - Snow Light Snow
6:00 AM 24.8 °F 11.1 °F 23.0 °F 93% 29.97 in 4.0 mi WNW 18.4 mph - N/A Snow Light Snow
7:00 AM 23.0 °F 8.3 °F 19.4 °F 86% 29.99 in 4.0 mi West 19.6 mph 27.6 mph N/A Snow Light Snow
8:00 AM 21.2 °F 6.4 °F 19.4 °F 93% 30.01 in 4.0 mi West 18.4 mph 24.2 mph N/A Snow Light Snow
9:00 AM 23.0 °F 9.6 °F 19.4 °F 86% 30.03 in 8.0 mi WNW 16.1 mph 31.1 mph N/A Snow Light Snow
10:00 AM 21.2 °F 6.4 °F 17.6 °F 86% 30.05 in 4.0 mi WNW 18.4 mph 26.5 mph N/A Snow Light Snow
10:31 AM 21.2 °F 6.4 °F 17.6 °F 86% 30.06 in 2.0 mi WNW 18.4 mph 26.5 mph N/A Snow Light Snow
10:43 AM 21.2 °F 6.8 °F 17.6 °F 86% 30.06 in 1.0 mi WNW 17.3 mph 26.5 mph N/A Snow Light Snow
11:00 AM 21.2 °F 6.8 °F 17.6 °F 86% 30.07 in 1.0 mi WNW 17.3 mph 25.3 mph N/A Snow Light Snow
12:00 PM 22 °F - 18 °F 78% 30.09 in 2 mi WNW 19.6 mph - - Snow Light Snow
12:00 PM 21.2 °F 6.4 °F 17.6 °F 86% 30.09 in 2.0 mi WNW 18.4 mph 25.3 mph N/A Snow Light Snow
12:07 PM 21.2 °F 5.6 °F 17.6 °F 86% 30.09 in 6.0 mi West 20.7 mph 29.9 mph N/A Snow Light Snow
1:00 PM 21.2 °F 6.4 °F 17.6 °F 86% 30.10 in 15.0 mi WNW 18.4 mph 25.3 mph N/A Snow Light Snow
2:00 PM 23.0 °F 10.1 °F 17.6 °F 80% 30.11 in 8.0 mi WNW 15.0 mph - N/A Snow Light Snow
4:00 PM 23.0 °F 11.7 °F 19.4 °F 86% 30.12 in 10.0 mi WNW 11.5 mph 19.6 mph N/A Snow Light Snow
6:00 PM 23 °F - 19 °F 77% 30.12 in 19 mi WNW 10.4 mph - - Snow Light Snow
6:00 PM 23.0 °F 12.4 °F 19.4 °F 86% 30.12 in 20.0 mi WNW 10.4 mph - N/A Snow Light Snow
7:00 PM 23.0 °F 13.1 °F 19.4 °F 86% 30.13 in 15.0 mi WNW 9.2 mph - N/A Snow Light Snow
8:00 PM 23.0 °F 11.7 °F 19.4 °F 86% 30.13 in 8.0 mi WNW 11.5 mph - N/A Snow Light Snow
9:00 PM 23.0 °F 12.4 °F 21.2 °F 93% 30.14 in 8.0 mi WNW 10.4 mph - N/A Snow Light Snow
10:00 PM 23.0 °F 13.1 °F 21.2 °F 93% 30.14 in 8.0 mi WNW 9.2 mph - N/A Snow Light Snow
11:00 PM 24.8 °F 14.0 °F 21.2 °F 86% 30.15 in 8.0 mi West 11.5 mph - N/A Snow Light Snow